Location: Boitzum
(52.1496°N, 9.6943°E)
Time: 00:43:58
(UTC+00:00)

Cosmos 2263 Rocket - Pass Details

Date: 13 January 2026
Orbit: 821 x 849 km, 71.0° (Epoch: 17 February)

Event Time Altitude Azimuth Distance (km) Brightness Sun altitude
Exits shadow 03:45:09 17° 7° (N) 2,017 4.2 -32.7°
Drops below altitude 10° 03:46:46 10° 19° (NNE) 2,481 4.9 -32.5°
Sets 03:49:35 0° 31° (NNE) 3,422 5.8 -32.1°
